Time,TemperatureF,DewpointF,PressureIn,WindDirection,WindDirectionDegrees,WindSpeedMPH,WindSpeedGustMPH,Humidity,HourlyPrecipIn,Conditions,Clouds,dailyrainin,SoftwareType,DateUTC
2013-05-01 00:00:00,60.8,56.0,30.00,SSE,153,0.0,0.0,83,0.00,,,0.00,weatherlink.com 1.10,2013-05-01 05:00:00,
2013-05-01 00:16:00,59.9,55.0,30.00,SSE,153,0.0,0.0,85,0.00,,,0.00,weatherlink.com 1.10,2013-05-01 05:16:00,
2013-05-01 00:32:00,59.2,55.0,30.00,SSE,153,0.0,0.0,86,0.00,,,0.00,weatherlink.com 1.10,2013-05-01 05:32:00,
2013-05-01 00:48:00,58.2,55.0,30.00,SSE,154,0.0,0.0,88,0.00,,,0.00,weatherlink.com 1.10,2013-05-01 05:48:00,
2013-05-01 01:04:00,57.5,54.0,30.00,SSE,153,0.0,0.0,89,0.00,,,0.00,weatherlink.com 1.10,2013-05-01 06:04:00,
2013-05-01 01:20:00,57.4,54.0,30.00,SSE,153,0.0,0.0,90,0.00,,,0.00,weatherlink.com 1.10,2013-05-01 06:20:00,
2013-05-01 01:37:00,56.8,54.0,30.00,SSE,154,0.0,0.0,90,0.00,,,0.00,weatherlink.com 1.10,2013-05-01 06:37:00,
2013-05-01 01:53:00,56.4,54.0,30.00,SSE,153,0.0,0.0,91,0.00,,,0.00,weatherlink.com 1.10,2013-05-01 06:53:00,
2013-05-01 02:09:00,56.2,54.0,30.00,SSE,153,0.0,0.0,92,0.00,,,0.00,weatherlink.com 1.10,2013-05-01 07:09:00,
2013-05-01 02:25:00,55.8,54.0,30.00,SSE,153,0.0,0.0,93,0.00,,,0.00,weatherlink.com 1.10,2013-05-01 07:25:00,
2013-05-01 02:41:00,55.4,53.0,30.00,SSE,153,0.0,0.0,93,0.00,,,0.00,weatherlink.com 1.10,2013-05-01 07:41:00,
2013-05-01 02:57:00,55.4,53.0,30.01,SSE,153,0.0,0.0,93,0.00,,,0.00,weatherlink.com 1.10,2013-05-01 07:57:00,
2013-05-01 03:13:00,54.7,53.0,30.01,SSE,153,0.0,0.0,93,0.00,,,0.00,weatherlink.com 1.10,2013-05-01 08:13:00,
2013-05-01 03:29:00,54.2,53.0,30.01,SSE,153,0.0,0.0,95,0.00,,,0.00,weatherlink.com 1.10,2013-05-01 08:29:00,
2013-05-01 03:45:00,54.5,53.0,30.01,SSE,154,0.0,0.0,95,0.00,,,0.00,weatherlink.com 1.10,2013-05-01 08:45:00,
2013-05-01 04:01:00,54.8,53.0,30.01,SSE,153,0.0,0.0,94,0.00,,,0.00,weatherlink.com 1.10,2013-05-01 09:01:00,
2013-05-01 04:17:00,54.7,53.0,30.01,SSE,153,0.0,0.0,95,0.00,,,0.00,weatherlink.com 1.10,2013-05-01 09:17:00,
2013-05-01 04:35:00,56.2,54.0,30.02,SSE,153,0.0,0.0,92,0.00,,,0.00,weatherlink.com 1.10,2013-05-01 09:35:00,
2013-05-01 04:51:00,56.3,54.0,30.02,SSE,153,0.0,0.0,92,0.00,,,0.00,weatherlink.com 1.10,2013-05-01 09:51:00,
2013-05-01 05:07:00,56.0,54.0,30.03,SSE,153,0.0,0.0,93,0.00,,,0.00,weatherlink.com 1.10,2013-05-01 10:07:00,
2013-05-01 05:23:00,56.1,54.0,30.03,SSE,153,0.0,0.0,93,0.00,,,0.00,weatherlink.com 1.10,2013-05-01 10:23:00,
2013-05-01 05:39:00,56.1,54.0,30.04,SSE,153,0.0,0.0,92,0.00,,,0.00,weatherlink.com 1.10,2013-05-01 10:39:00,
2013-05-01 05:55:00,56.0,54.0,30.04,SSE,153,0.0,0.0,93,0.00,,,0.00,weatherlink.com 1.10,2013-05-01 10:55:00,
2013-05-01 06:11:00,56.4,54.0,30.05,SSE,153,0.0,0.0,93,0.00,,,0.00,weatherlink.com 1.10,2013-05-01 11:11:00,
2013-05-01 06:28:00,56.4,54.0,30.05,SSE,153,0.0,0.0,93,0.00,,,0.00,weatherlink.com 1.10,2013-05-01 11:28:00,
2013-05-01 06:44:00,57.3,55.0,30.05,SSE,153,0.0,0.0,93,0.00,,,0.00,weatherlink.com 1.10,2013-05-01 11:44:00,
2013-05-01 07:00:00,58.8,56.0,30.06,SSE,153,0.0,1.0,91,0.00,,,0.00,weatherlink.com 1.10,2013-05-01 12:00:00,
2013-05-01 07:16:00,60.4,57.0,30.07,South,178,0.0,1.0,88,0.00,,,0.00,weatherlink.com 1.10,2013-05-01 12:16:00,
2013-05-01 07:32:00,62.6,58.0,30.08,ESE,105,0.0,1.0,84,0.00,,,0.00,weatherlink.com 1.10,2013-05-01 12:32:00,
2013-05-01 07:48:00,63.5,58.0,30.08,SE,140,0.0,4.0,83,0.00,,,0.00,weatherlink.com 1.10,2013-05-01 12:48:00,
2013-05-01 08:05:00,65.1,59.0,30.09,ESE,107,1.0,4.0,80,0.00,,,0.00,weatherlink.com 1.10,2013-05-01 13:05:00,
2013-05-01 08:21:00,66.6,60.0,30.09,SSE,149,1.0,6.0,79,0.00,,,0.00,weatherlink.com 1.10,2013-05-01 13:21:00,
2013-05-01 08:38:00,68.3,61.0,30.09,East,96,3.0,7.0,77,0.00,,,0.00,weatherlink.com 1.10,2013-05-01 13:38:00,
2013-05-01 08:54:00,69.1,62.0,30.10,SE,135,2.0,7.0,77,0.00,,,0.00,weatherlink.com 1.10,2013-05-01 13:54:00,
2013-05-01 09:11:00,70.4,62.0,30.10,SE,142,4.0,12.0,75,0.00,,,0.00,weatherlink.com 1.10,2013-05-01 14:11:00,
2013-05-01 09:27:00,71.6,63.0,30.10,SSW,199,4.0,9.0,74,0.00,,,0.00,weatherlink.com 1.10,2013-05-01 14:27:00,
2013-05-01 09:43:00,71.4,63.0,30.10,South,183,4.0,10.0,74,0.00,,,0.00,weatherlink.com 1.10,2013-05-01 14:43:00,
2013-05-01 10:00:00,72.1,63.0,30.10,SW,230,3.0,6.0,74,0.00,,,0.00,weatherlink.com 1.10,2013-05-01 15:00:00,
2013-05-01 10:16:00,74.5,64.0,30.10,SW,221,7.0,8.0,70,0.00,,,0.00,weatherlink.com 1.10,2013-05-01 15:16:00,
2013-05-01 10:32:00,74.0,64.0,30.10,South,189,3.0,7.0,70,0.00,,,0.00,weatherlink.com 1.10,2013-05-01 15:32:00,
2013-05-01 10:48:00,75.1,64.0,30.10,SSW,210,5.0,7.0,68,0.00,,,0.00,weatherlink.com 1.10,2013-05-01 15:48:00,
2013-05-01 11:04:00,75.5,64.0,30.10,ESE,118,3.0,6.0,68,0.00,,,0.00,weatherlink.com 1.10,2013-05-01 16:04:00,
2013-05-01 11:21:00,75.5,64.0,30.10,ESE,121,1.0,5.0,67,0.00,,,0.00,weatherlink.com 1.10,2013-05-01 16:21:00,
2013-05-01 11:38:00,77.7,65.0,30.09,SW,219,2.0,4.0,66,0.00,,,0.00,weatherlink.com 1.10,2013-05-01 16:38:00,
2013-05-01 11:54:00,78.8,66.0,30.09,South,172,2.0,3.0,64,0.00,,,0.00,weatherlink.com 1.10,2013-05-01 16:54:00,
2013-05-01 12:10:00,80.0,65.0,30.09,SSW,205,3.0,5.0,61,0.00,,,0.00,weatherlink.com 1.10,2013-05-01 17:10:00,
2013-05-01 12:26:00,79.4,64.0,30.08,East,82,5.0,8.0,59,0.00,,,0.00,weatherlink.com 1.10,2013-05-01 17:26:00,
2013-05-01 12:42:00,80.6,65.0,30.08,WNW,286,0.0,8.0,59,0.00,,,0.00,weatherlink.com 1.10,2013-05-01 17:42:00,
2013-05-01 12:58:00,80.5,65.0,30.08,SW,221,4.0,7.0,59,0.00,,,0.00,weatherlink.com 1.10,2013-05-01 17:58:00,
2013-05-01 13:14:00,81.0,64.0,30.08,SE,128,4.0,7.0,57,0.00,,,0.00,weatherlink.com 1.10,2013-05-01 18:14:00,
2013-05-01 13:30:00,82.1,63.0,30.08,SSE,157,3.0,7.0,53,0.00,,,0.00,weatherlink.com 1.10,2013-05-01 18:30:00,
2013-05-01 13:46:00,81.7,63.0,30.08,East,90,3.0,6.0,54,0.00,,,0.00,weatherlink.com 1.10,2013-05-01 18:46:00,
2013-05-01 14:02:00,81.7,62.0,30.08,SE,131,5.0,7.0,51,0.00,,,0.00,weatherlink.com 1.10,2013-05-01 19:02:00,
2013-05-01 14:18:00,81.3,63.0,30.08,SSE,151,2.0,8.0,53,0.00,,,0.00,weatherlink.com 1.10,2013-05-01 19:18:00,
2013-05-01 14:35:00,81.2,61.0,30.08,WSW,245,3.0,7.0,51,0.00,,,0.00,weatherlink.com 1.10,2013-05-01 19:35:00,
2013-05-01 14:51:00,81.8,61.0,30.07,SSW,202,2.0,6.0,50,0.00,,,0.00,weatherlink.com 1.10,2013-05-01 19:51:00,
2013-05-01 15:07:00,82.0,63.0,30.07,SW,229,2.0,8.0,52,0.00,,,0.00,weatherlink.com 1.10,2013-05-01 20:07:00,
2013-05-01 15:23:00,82.3,62.0,30.06,SW,227,6.0,6.0,50,0.00,,,0.00,weatherlink.com 1.10,2013-05-01 20:23:00,
2013-05-01 15:39:00,83.0,60.0,30.06,West,277,3.0,6.0,46,0.00,,,0.00,weatherlink.com 1.10,2013-05-01 20:39:00,
2013-05-01 15:55:00,82.6,61.0,30.06,SW,222,2.0,9.0,48,0.00,,,0.00,weatherlink.com 1.10,2013-05-01 20:55:00,
2013-05-01 16:11:00,82.8,62.0,30.06,SW,234,1.0,6.0,50,0.00,,,0.00,weatherlink.com 1.10,2013-05-01 21:11:00,
2013-05-01 16:27:00,83.1,60.0,30.06,SE,128,2.0,5.0,45,0.00,,,0.00,weatherlink.com 1.10,2013-05-01 21:27:00,
2013-05-01 16:44:00,83.0,59.0,30.06,West,259,1.0,4.0,44,0.00,,,0.00,weatherlink.com 1.10,2013-05-01 21:44:00,
2013-05-01 17:00:00,82.8,61.0,30.05,South,172,2.0,5.0,48,0.00,,,0.00,weatherlink.com 1.10,2013-05-01 22:00:00,
2013-05-01 17:16:00,81.7,60.0,30.05,WSW,249,1.0,6.0,48,0.00,,,0.00,weatherlink.com 1.10,2013-05-01 22:16:00,
2013-05-01 17:33:00,83.2,61.0,30.05,SSE,148,1.0,3.0,48,0.00,,,0.00,weatherlink.com 1.10,2013-05-01 22:33:00,
2013-05-01 17:49:00,80.7,60.0,30.05,SW,222,2.0,4.0,49,0.00,,,0.00,weatherlink.com 1.10,2013-05-01 22:49:00,
2013-05-01 18:05:00,79.3,60.0,30.05,SSE,161,0.0,5.0,52,0.00,,,0.00,weatherlink.com 1.10,2013-05-01 23:05:00,
2013-05-01 18:21:00,78.6,61.0,30.05,SW,217,2.0,4.0,55,0.00,,,0.00,weatherlink.com 1.10,2013-05-01 23:21:00,
2013-05-01 18:37:00,78.2,61.0,30.04,SSW,205,1.0,5.0,55,0.00,,,0.00,weatherlink.com 1.10,2013-05-01 23:37:00,
2013-05-01 18:53:00,77.0,61.0,30.04,SSW,202,0.0,1.0,58,0.00,,,0.00,weatherlink.com 1.10,2013-05-01 23:53:00,
2013-05-01 19:09:00,75.9,61.0,30.05,SW,214,0.0,0.0,60,0.00,,,0.00,weatherlink.com 1.10,2013-05-02 00:09:00,
2013-05-01 19:25:00,74.8,62.0,30.05,SW,214,0.0,0.0,65,0.00,,,0.00,weatherlink.com 1.10,2013-05-02 00:25:00,
2013-05-01 19:41:00,73.3,63.0,30.05,SW,215,0.0,0.0,69,0.00,,,0.00,weatherlink.com 1.10,2013-05-02 00:41:00,
2013-05-01 19:57:00,71.9,63.0,30.05,SW,214,0.0,0.0,73,0.00,,,0.00,weatherlink.com 1.10,2013-05-02 00:57:00,
2013-05-01 20:13:00,71.2,63.0,30.06,SW,214,0.0,0.0,75,0.00,,,0.00,weatherlink.com 1.10,2013-05-02 01:13:00,
2013-05-01 20:29:00,70.1,63.0,30.06,SW,214,0.0,0.0,77,0.00,,,0.00,weatherlink.com 1.10,2013-05-02 01:29:00,
2013-05-01 20:46:00,68.8,62.0,30.06,SW,214,0.0,0.0,79,0.00,,,0.00,weatherlink.com 1.10,2013-05-02 01:46:00,
2013-05-01 21:02:00,67.7,62.0,30.07,SW,215,0.0,0.0,82,0.00,,,0.00,weatherlink.com 1.10,2013-05-02 02:02:00,
2013-05-01 21:18:00,67.0,62.0,30.07,SW,214,0.0,0.0,84,0.00,,,0.00,weatherlink.com 1.10,2013-05-02 02:18:00,
2013-05-01 21:34:00,67.0,62.0,30.07,SW,215,0.0,0.0,85,0.00,,,0.00,weatherlink.com 1.10,2013-05-02 02:34:00,
2013-05-01 21:51:00,66.5,62.0,30.08,SW,214,0.0,0.0,85,0.00,,,0.00,weatherlink.com 1.10,2013-05-02 02:51:00,
2013-05-01 22:07:00,66.6,62.0,30.08,SW,214,0.0,0.0,86,0.00,,,0.00,weatherlink.com 1.10,2013-05-02 03:07:00,
2013-05-01 22:23:00,65.7,62.0,30.08,SW,214,0.0,0.0,87,0.00,,,0.00,weatherlink.com 1.10,2013-05-02 03:23:00,
2013-05-01 22:40:00,65.1,61.0,30.07,SW,214,0.0,0.0,88,0.00,,,0.00,weatherlink.com 1.10,2013-05-02 03:40:00,
2013-05-01 22:56:00,64.6,62.0,30.07,SW,214,0.0,0.0,90,0.00,,,0.00,weatherlink.com 1.10,2013-05-02 03:56:00,
2013-05-01 23:12:00,64.4,62.0,30.07,SW,214,0.0,0.0,91,0.00,,,0.00,weatherlink.com 1.10,2013-05-02 04:12:00,
2013-05-01 23:29:00,63.7,61.0,30.07,SW,214,0.0,0.0,91,0.00,,,0.00,weatherlink.com 1.10,2013-05-02 04:29:00,
2013-05-01 23:45:00,63.3,61.0,30.07,SW,214,0.0,0.0,93,0.00,,,0.00,weatherlink.com 1.10,2013-05-02 04:45:00,